This is the latest recevied weather packets stored in our database for station/object OE9GTV. If no packets are shown the sender has not sent any weather packets the latest 10 day(s).
| Time | Temp. | Humidity | Pressure | Rain* | Wind** | Luminosity | Snow |
|---|---|---|---|---|---|---|---|
| 1777469471 | 17.78° C | 62% | 1015.2 hPa | 0 mm | - | 0 W/m² | - |
| 1777468871 | 18.33° C | 61% | 1015.3 hPa | 0 mm | - | 0 W/m² | - |
| 1777468271 | 18.33° C | 59% | 1015.2 hPa | 0 mm | - | 0 W/m² | - |
| 1777467671 | 18.89° C | 59% | 1015.2 hPa | 0 mm | - | 0 W/m² | - |
| 1777467071 | 18.33° C | 62% | 1015.3 hPa | 0 mm | - | 0 W/m² | - |
| 1777466471 | 18.33° C | 65% | 1015.4 hPa | 0 mm | - | 0 W/m² | - |
| 1777465872 | 18.33° C | 65% | 1015.4 hPa | 0 mm | - | 0 W/m² | - |
| 1777465271 | 16.67° C | 66% | 1015.5 hPa | 0 mm | - | 0 W/m² | - |
| 1777464671 | 17.22° C | 69% | 1015.5 hPa | 0 mm | - | 0 W/m² | - |
| 1777464071 | 17.22° C | 69% | 1015.5 hPa | 0 mm | - | 0 W/m² | - |
| 1777463471 | 17.22° C | 69% | 1015.5 hPa | 0 mm | - | 0 W/m² | - |
| 1777462871 | 17.22° C | 74% | 1015.6 hPa | 0 mm | - | 0 W/m² | - |
| 1777462271 | 16.67° C | 73% | 1015.6 hPa | 0 mm | - | 0 W/m² | - |
| 1777461670 | 15.56° C | 79% | 1015.6 hPa | 0 mm | - | 0 W/m² | - |
| 1777461070 | 15.56° C | 82% | 1015.8 hPa | 0 mm | - | 0 W/m² | - |
| 1777460475 | 15° C | 84% | 1015.7 hPa | 0 mm | - | 0 W/m² | - |
| 1777459875 | 14.44° C | 86% | 1015.7 hPa | 0 mm | - | 0 W/m² | - |
| 1777459275 | 14.44° C | 86% | 1015.8 hPa | 0.25 mm | - | 0 W/m² | - |
| 1777458675 | 14.44° C | 86% | 1015.8 hPa | 0.25 mm | - | 0 W/m² | - |
| 1777458075 | 14.44° C | 87% | 1015.8 hPa | 0.25 mm | - | 0 W/m² | - |
| 1777457475 | 13.89° C | 86% | 1015.9 hPa | 0.25 mm | - | 0 W/m² | - |
| 1777456875 | 13.89° C | 87% | 1015.8 hPa | 0.25 mm | - | 0 W/m² | - |
| 1777456275 | 13.89° C | 87% | 1015.9 hPa | 0.25 mm | - | 0 W/m² | - |
| 1777455675 | 14.44° C | 88% | 1015.8 hPa | 0 mm | - | 0 W/m² | - |
| 1777455075 | 13.89° C | 88% | 1015.8 hPa | 0 mm | - | 0 W/m² | - |
* Rain latest hour (hover to see other rain measurements)
** Current wind speed in m/s (hover to see current wind gust speed)